User: anonymous   Login
Location: Unspecified
(0.0000°N, 0.0000°E)
Time: 21:18:13
(UTC+00:00)
Language:

Kosmos-1655 - Orbit

View from above orbital plane
View from above orbital plane
View from above satellite
View from above satellite

Ground track
Ground track

The orbit data is extracted from the following two-line orbital elements,

1 15751U 85041A   17141.95423753 +.00000034 +00000-0 +21666-4 0  9991
2 15751 082.9483 345.3492 0025414 291.2099 184.2484 13.71690208600456
Epoch (UTC): 21 May 2017 22:54:06
Eccentricity: 0.0025414
inclination: 82.9483°
perigee height: 975 km
apogee height: 1012 km
right ascension of ascending node: 345.3492°
argument of perigee: 291.2099°
revolutions per day: 13.71690208
mean anomaly at epoch: 184.2484°
orbit number at epoch: 60045

The dashed part of the orbit path shows where the satellite is in the earth's shadow,  

DLR